Location: Brienzwiler
(46.7508°N, 8.1014°E)
Time: 08:01:36
(UTC+00:00)

IRIDIUM 104 - Pass Details

Date: 05 July 2020
Orbit: 776 x 779 km, 86.4° (Epoch: 05 August)

Event Time Altitude Azimuth Distance (km) Brightness Sun altitude
Exits shadow 23:23:21 39° 207° (SSW) 1,151 4.8 -20.6°
Maximum altitude 23:25:12 67° 275° (W) 846 4.5 -20.6°
Drops below altitude 10° 23:30:26 10° 359° (N) 2,343 8.0 -20.6°
Sets 23:32:49 0° 2° (N) 3,275 9.2 -20.6°
